EW1440 Weather Reports


Display with metric or nautical units.
time (UTC)temp
F
wind
direction
speed
MPH
gust
MPH
rain 1hr
in
rain 24hr
in
rain mn
in
humidity
%
barometer
mb
20260504190533 77 199 5.0 16.0 0.00 0.00 0.00 70 1013.2
20260504190048 76 220 6.0 16.0 0.00 0.00 0.00 70 1013.4
20260504185533 76 162 6.0 14.0 0.00 0.00 0.00 69 1013.3
20260504185035 76 176 8.0 14.0 0.00 0.00 0.00 69 1013.4
20260504184556 77 201 6.0 13.0 0.00 0.00 0.00 68 1013.3
20260504184034 77 193 6.0 14.0 0.00 0.00 0.00 69 1013.4
20260504183534 76 182 5.0 15.0 0.00 0.00 0.00 68 1013.5
20260504183047 76 180 10.0 15.0 0.00 0.00 0.00 68 1013.5
20260504182533 77 197 8.0 17.0 0.00 0.00 0.00 68 1013.8
20260504182033 77 193 8.0 17.0 0.00 0.00 0.00 67 1013.8
20260504181547 78 171 6.0 17.0 0.00 0.00 0.00 67 1013.7
20260504181033 79 169 7.0 16.0 0.00 0.00 0.00 66 1013.7
20260504180534 78 201 9.0 16.0 0.00 0.00 0.00 67 1013.8
20260504180047 78 236 7.0 18.0 0.00 0.00 0.00 67 1013.9
20260504175533 77 154 10.0 19.0 0.00 0.00 0.00 69 1013.9
20260504175033 77 212 10.0 22.0 0.00 0.00 0.00 67 1013.9
20260504174549 77 194 9.0 22.0 0.00 0.00 0.00 69 1013.9
20260504174034 76 213 11.0 20.0 0.00 0.00 0.00 69 1013.9
20260504173534 75 149 7.0 16.0 0.00 0.00 0.00 72 1014.1
20260504173049 75 239 7.0 16.0 0.00 0.00 0.00 72 1014.3
20260504172534 76 186 8.0 19.0 0.00 0.00 0.00 71 1014.4
20260504172033 74 178 10.0 19.0 0.00 0.00 0.00 72 1014.6
20260504171548 74 197 10.0 18.0 0.00 0.00 0.00 72 1014.7
20260504171034 74 203 7.0 15.0 0.00 0.00 0.00 73 1014.6
20260504170534 75 195 8.0 15.0 0.00 0.00 0.00 71 1014.7
20260504151034 70 187 9.0 18.0 0.00 0.00 0.00 81 1015.4
20260504150533 69 174 8.0 17.0 0.00 0.00 0.00 81 1015.5
20260504141036 66 186 7.0 13.0 0.00 0.00 0.00 85 1015.4
20260504140532 65 173 5.0 13.0 0.00 0.00 0.00 87 1015.3
20260504130533 59 0 0.0 2.0 0.00 0.00 0.00 90 1015.3
20260504110533 59 0 0.0 1.0 0.00 0.00 0.00 84 1014.8
20260504100533 61 172 1.0 4.0 0.00 0.00 0.00 83 1014.9
20260504081556 63 160 3.0 8.0 0.00 0.00 0.00 79 1015.8
20260504081035 63 177 4.0 8.0 0.00 0.00 0.00 79 1016.0
20260504080533 63 163 3.0 10.0 0.00 0.00 0.00 79 1016.1
20260504050534 64 137 5.0 14.0 0.00 0.00 0.00 74 1017.6
20260504045533 64 128 5.0 10.0 0.00 0.00 0.00 73 1017.6
20260504045033 64 141 5.0 9.0 0.00 0.00 0.00 72 1017.5
20260504044550 64 137 5.0 8.0 0.00 0.00 0.00 72 1017.5
20260504044033 64 153 5.0 11.0 0.00 0.00 0.00 71 1017.6
20260504043536 65 153 6.0 12.0 0.00 0.00 0.00 71 1017.6
20260504043049 65 159 7.0 12.0 0.00 0.00 0.00 71 1017.6
20260504042534 64 145 7.0 12.0 0.00 0.00 0.00 71 1017.5
20260504042033 64 149 5.0 11.0 0.00 0.00 0.00 70 1017.5
20260504041544 65 166 5.0 11.0 0.00 0.00 0.00 70 1017.6
20260504041033 65 138 5.0 9.0 0.00 0.00 0.00 69 1017.6
20260504040535 65 151 4.0 8.0 0.00 0.00 0.00 67 1017.7
20260504040055 65 134 2.0 6.0 0.00 0.00 0.00 67 1017.7
20260504035533 65 134 3.0 6.0 0.00 0.00 0.00 66 1017.7
20260504035034 65 153 4.0 10.0 0.00 0.00 0.00 66 1017.7
20260504034555 65 153 4.0 10.0 0.00 0.00 0.00 66 1017.7
20260504034037 65 164 4.0 11.0 0.00 0.00 0.00 66 1017.7
20260504033533 65 155 5.0 11.0 0.00 0.00 0.00 66 1017.6
20260504033056 64 155 5.0 9.0 0.00 0.00 0.00 66 1017.6
20260504032537 64 139 4.0 7.0 0.00 0.00 0.00 67 1017.6
20260504032035 64 155 3.0 7.0 0.00 0.00 0.00 67 1017.8
20260504031600 63 164 3.0 8.0 0.00 0.00 0.00 68 1017.6
20260504031033 63 144 3.0 8.0 0.00 0.00 0.00 69 1017.4
20260504030533 63 162 4.0 8.0 0.00 0.00 0.00 70 1017.4
20260504030106 63 157 2.0 6.0 0.00 0.00 0.00 71 1017.4
20260504025533 63 143 2.0 5.0 0.00 0.00 0.00 72 1017.4
20260504025036 63 154 2.0 4.0 0.00 0.00 0.00 74 1017.3
20260504024553 63 162 2.0 4.0 0.00 0.00 0.00 75 1017.4
20260504024033 64 169 2.0 3.0 0.00 0.00 0.00 74 1017.3
20260504023534 64 189 2.0 3.0 0.00 0.00 0.00 74 1017.3
20260504023049 64 189 1.0 2.0 0.00 0.00 0.00 73 1017.2
20260504022535 64 189 0.0 2.0 0.00 0.00 0.00 72 1017.3
20260504022034 65 189 1.0 2.0 0.00 0.00 0.00 72 1017.4
20260504021547 65 189 1.0 2.0 0.00 0.00 0.00 71 1017.4
20260504021033 65 189 0.0 1.0 0.00 0.00 0.00 71 1017.3
20260504020533 66 0 0.0 0.0 0.00 0.00 0.00 70 1017.4
20260504020048 66 0 0.0 1.0 0.00 0.00 0.00 70 1017.4
20260504015533 67 0 0.0 1.0 0.00 0.00 0.00 68 1017.3
20260504015035 67 0 0.0 1.0 0.00 0.00 0.00 67 1017.1
20260504014546 68 0 0.0 2.0 0.00 0.00 0.00 66 1017.0
20260504014033 69 0 0.0 2.0 0.00 0.00 0.00 65 1017.0
20260504013533 69 0 0.0 2.0 0.00 0.00 0.00 63 1017.0
20260504013044 70 189 1.0 2.0 0.00 0.00 0.00 62 1017.0
20260504012533 70 189 1.0 3.0 0.00 0.00 0.00 61 1016.9
20260504012034 71 189 1.0 3.0 0.00 0.00 0.00 58 1016.8
20260504011548 72 189 2.0 3.0 0.00 0.00 0.00 56 1016.8
20260504011037 72 174 1.0 3.0 0.00 0.00 0.00 55 1016.8
20260504010533 72 163 2.0 4.0 0.00 0.00 0.00 51 1016.9
20260504010045 73 163 2.0 4.0 0.00 0.00 0.00 48 1016.8
20260504005535 73 172 2.0 5.0 0.00 0.00 0.00 48 1016.8
20260504005036 73 164 2.0 5.0 0.00 0.00 0.00 47 1016.9
20260504004548 73 180 2.0 5.0 0.00 0.00 0.00 46 1017.0
20260504004033 73 216 2.0 6.0 0.00 0.00 0.00 46 1017.0
20260504003533 73 150 2.0 6.0 0.00 0.00 0.00 46 1017.0
20260504003046 73 135 3.0 6.0 0.00 0.00 0.00 46 1016.9
20260504002533 74 143 3.0 8.0 0.00 0.00 0.00 45 1017.1
20260504002033 74 164 4.0 9.0 0.00 0.00 0.00 45 1017.1
20260504001550 74 149 3.0 9.0 0.00 0.00 0.00 44 1017.1
20260504001033 74 145 5.0 9.0 0.00 0.00 0.00 43 1017.1
20260504000535 75 180 4.0 10.0 0.00 0.00 0.00 44 1017.1
20260504000113 75 147 4.0 10.0 0.00 0.00 0.00 43 1017.0
20260503235534 75 156 4.0 11.0 0.00 0.00 0.00 44 1017.1
20260503235037 75 113 6.0 12.0 0.00 0.00 0.00 42 1017.1
20260503234543 75 147 6.0 12.0 0.00 0.00 0.00 43 1017.1
20260503234035 76 138 6.0 12.0 0.00 0.00 0.00 43 1017.3
20260503233534 76 116 5.0 12.0 0.00 0.00 0.00 44 1017.3
20260503233048 76 116 3.0 14.0 0.00 0.00 0.00 44 1017.5
20260503232533 76 162 8.0 14.0 0.00 0.00 0.00 42 1017.5
20260503232036 76 147 6.0 14.0 0.00 0.00 0.00 43 1017.6
20260503231548 76 132 4.0 14.0 0.00 0.00 0.00 45 1017.6
20260503231036 76 176 6.0 15.0 0.00 0.00 0.00 41 1017.6
20260503230535 77 112 8.0 15.0 0.00 0.00 0.00 42 1017.6
20260503230053 77 139 6.0 16.0 0.00 0.00 0.00 44 1017.5
20260503225533 77 109 7.0 16.0 0.00 0.00 0.00 43 1017.6
20260503225033 77 142 7.0 14.0 0.00 0.00 0.00 40 1017.7
20260503224551 77 131 8.0 14.0 0.00 0.00 0.00 41 1017.7
20260503224034 77 128 7.0 14.0 0.00 0.00 0.00 42 1017.6
20260503223531 77 121 7.0 14.0 0.00 0.00 0.00 41 1017.6
20260503223045 77 138 4.0 14.0 0.00 0.00 0.00 42 1017.6
20260503222534 78 141 7.0 13.0 0.00 0.00 0.00 43 1017.8
20260503222033 77 110 6.0 13.0 0.00 0.00 0.00 41 1017.7
20260503221543 77 123 8.0 13.0 0.00 0.00 0.00 41 1017.8
20260503221034 78 151 9.0 15.0 0.00 0.00 0.00 42 1018.0
20260503220534 78 122 6.0 15.0 0.00 0.00 0.00 41 1018.0
20260503220052 78 136 8.0 14.0 0.00 0.00 0.00 42 1018.1
20260503215535 78 133 6.0 17.0 0.00 0.00 0.00 40 1018.3
20260503215037 78 158 6.0 17.0 0.00 0.00 0.00 39 1018.4
20260503214547 78 126 6.0 17.0 0.00 0.00 0.00 45 1018.5
20260503214033 78 177 5.0 12.0 0.00 0.00 0.00 43 1018.5
20260503213533 78 135 6.0 17.0 0.00 0.00 0.00 38 1018.5
20260503213044 77 160 5.0 18.0 0.00 0.00 0.00 40 1018.7
20260503212538 77 143 7.0 18.0 0.00 0.00 0.00 36 1018.9
20260503212033 78 154 7.0 15.0 0.00 0.00 0.00 38 1018.9
20260503211547 77 143 7.0 14.0 0.00 0.00 0.00 39 1019.0
20260503211031 78 128 7.0 15.0 0.00 0.00 0.00 37 1019.1
20260503210534 78 112 5.0 16.0 0.00 0.00 0.00 40 1019.3
20260503210044 77 205 7.0 16.0 0.00 0.00 0.00 41 1019.4
20260503205534 77 128 6.0 13.0 0.00 0.00 0.00 39 1019.5
20260503205036 78 226 7.0 13.0 0.00 0.00 0.00 38 1019.5
20260503204543 78 143 8.0 15.0 0.00 0.00 0.00 44 1019.6
20260503204034 78 110 5.0 15.0 0.00 0.00 0.00 39 1020.0
20260503203535 77 126 7.0 15.0 0.00 0.00 0.00 39 1019.9
20260503203050 76 108 8.0 15.0 0.00 0.00 0.00 39 1020.1
20260503202534 78 78 7.0 15.0 0.00 0.00 0.00 38 1020.2
20260503202035 78 120 8.0 14.0 0.00 0.00 0.00 41 1020.2
20260503201549 78 152 8.0 14.0 0.00 0.00 0.00 39 1020.3
20260503201036 78 162 7.0 14.0 0.00 0.00 0.00 39 1020.4
20260503200534 78 147 5.0 14.0 0.00 0.00 0.00 39 1020.5
20260503200048 78 163 6.0 16.0 0.00 0.00 0.00 41 1020.6
20260503195536 76 143 3.0 16.0 0.00 0.00 0.00 40 1020.6
20260503195033 78 121 8.0 17.0 0.00 0.00 0.00 40 1020.9
20260503194552 78 146 8.0 17.0 0.00 0.00 0.00 43 1020.9
20260503194034 78 155 7.0 16.0 0.00 0.00 0.00 39 1021.0
20260503193536 78 88 10.0 16.0 0.00 0.00 0.00 44 1021.1
20260503193046 77 197 8.0 16.0 0.00 0.00 0.00 40 1021.1
20260503192534 78 128 8.0 16.0 0.00 0.00 0.00 43 1021.1
20260503192033 77 105 7.0 14.0 0.00 0.00 0.00 44 1021.1
20260503191543 76 151 6.0 11.0 0.00 0.00 0.00 42 1021.0
20260503191035 77 147 3.0 13.0 0.00 0.00 0.00 43 1021.0